Flag for Switzerland Weather past 2 weeks in Riehen, Basel-Stadt, Switzerland

Now
83 °F

Passing clouds.


Feels Like: 82 °F
Forecast: 57 / 88 °F
Wind: 6 mph from East

Location: Bale-Mulhouse

Current Time: Aug 2, 2015 at 6:56:24 PM

Latest Report: Aug 2, 2015 at 6:00 PM


Visibility: 13 mi

Pressure: 29.99 "Hg

Humidity: 36%

Dew point: 53 °F

Location of RiehenLocation

Historic Weather in Riehen — Graph

°F

Riehen temperature yesterday

Maximum temperature yesterday: 69 °F (at 3:00 PM)
Minimum temperature yesterday: 53 °F (at 3:00 AM)
Average temperature yesterday: 62 °F

Past Weeks' High & Low Weather Summary

 TemperatureHumidityPressure
High93 °F (Jul 21, 5:00 PM)98% (Jul 30, 4:00 AM)30.12 "Hg (Jul 30, 4:00 AM)
Low46 °F (Jul 31, 6:00 AM)32% (Jul 30, 6:00 PM)29.65 "Hg (Jul 24, 7:00 PM)
Average69 °F66%29.93 "Hg
* Reported Jul 18 5:00 PM — Aug 2 5:00 PM, Riehen, Weather by CustomWeather, © 2015

Note: Actual official high and low records may vary slightly from our data, if they occured in-between our weather recording intervals... More about our weather records

Advertising

Riehen weather history for previous 24 hours

 ConditionsComfort  
Time TempWeatherWind HumidityBarometerVisibility
5:00 PM
Sun, Aug 2
83 °FPassing clouds.5 mph40%30.01 "Hg12 mi
4:00 PM82 °FScattered clouds.6 mph41%30.01 "Hg12 mi
3:00 PM80 °FScattered clouds.9 mph43%30.03 "Hg12 mi
2:00 PM80 °FPassing clouds.9 mph47%30.04 "Hg12 mi
1:00 PM78 °FPassing clouds.12 mph49%30.05 "Hg6 mi
12:00 PM75 °FPassing clouds.7 mph55%30.07 "Hg6 mi
11:00 AM71 °FPassing clouds.3 mph62%30.10 "Hg6 mi
10:00 AM68 °FPassing clouds.3 mph70%30.10 "Hg6 mi
9:00 AM64 °FPassing clouds.6 mph85%30.11 "Hg6 mi
8:00 AM60 °FScattered clouds.2 mph98%30.11 "Hg6 mi
7:00 AM54 °FFog.No wind98%30.12 "Hg1 mi
6:00 AM54 °FFog.1 mph96%30.11 "Hg2 mi
4:00 AM56 °FCool.3 mph96%30.09 "Hg2 mi
3:00 AM58 °FCool.2 mph93%30.07 "Hg4 mi
2:00 AM60 °FCool.5 mph94%30.07 "Hg4 mi
1:00 AM61 °FOvercast.3 mph94%30.07 "Hg4 mi
12:00 AM61 °FOvercast.3 mph95%30.06 "Hg9 mi
10:00 PM
Sat, Aug 1
63 °FLight rain. Low clouds.2 mph91%30.04 "Hg7 mi
9:00 PM64 °FLight rain. Low clouds.1 mph88%30.03 "Hg5 mi
8:00 PM65 °FLow clouds.5 mph81%30.01 "Hg12 mi
6:00 PM68 °FOvercast.3 mph72%29.99 "Hg8 mi
Weather by CustomWeather, © 2015

See weather overviewHow to use our weather pages